Regional Weather Roundup
Issued by NWS Sioux Falls, SD

Home | Current Version | Previous Version | Graphics & Text | Print | Product List | Glossary Off
Versions: 1 2 3 4 5 6 7 8 9 10 11 12 13 14 15 16 17 18 19 20 21 22 23 24 25 26 27 28 29 30 31 32 33 34 35 36 37 38 39 40 41 42 43 44 45 46 47 48 49 50

000
ASUS43 KFSD 181302
RWRFSD

WEATHER ROUNDUP FOR SE SOUTH DAKOTA/SW MINNESOTA/NW IOWA
NATIONAL WEATHER SERVICE SIOUX FALLS SD
800 AM CDT FRI APR 18 2014

NOTE: "FAIR" INDICATES FEW OR NO CLOUDS BELOW 12,000 FEET WITH NO
SIGNIFICANT WEATHER AND OR OBSTRUCTIONS TO VISIBILITY.


SDZ038>040-050-052>070-181400-
SOUTHEAST SOUTH DAKOTA

CITY           SKY/WX    TMP DP  RH WIND       PRES   REMARKS
CHAMBERLAIN      N/A     39  27  62 SE21      30.00F
HURON          CLOUDY    38  28  67 SE15G28   30.10F
MADISON        FAIR      32  32 100 SE18G26   30.18F WCI  20
MITCHELL       CLOUDY    39  29  67 SE18      30.13F
SIOUX FALLS    CLOUDY    35  29  78 SE16      30.21F WCI  25
WINNER         FAIR      46  35  65 S31G41    29.93F
YANKTON        CLOUDY    36  28  75 E12       30.20S
$$

MNZ071-072-080-081-089-090-097-098-181400-
SOUTHWEST MINNESOTA

CITY           SKY/WX    TMP DP  RH WIND       PRES   REMARKS
FAIRMONT       PTSUNNY   32  28  86 SE8       30.34S WCI  25
JACKSON        SUNNY     32  30  93 SE8       30.30S FOG     WCI  25
LUVERNE        PTSUNNY   34  32  93 SE9       30.26S FOG     WCI  26
MARSHALL       MOSUNNY   34  27  75 SE10      30.27R WCI  26
MONTEVIDEO     PTSUNNY   32  27  80 SE9       30.31R WCI  24
PIPESTONE      MOSUNNY   34  30  86 SE14G20   30.22S WCI  24
REDWOOD FALLS  CLOUDY    32  27  81 E9        30.30F WCI  24
TRACY          SUNNY     35  32  88 SE9       30.27S WCI  28
WINDOM         PTSUNNY   34  30  86 SE8       30.29S WCI  27
WORTHINGTON    MOSUNNY   34  27  75 SE14      30.28F WCI  24
$$

IAZ001>003-012>014-020>022-031-032-NEZ013-014-SDZ071-181400-
NORTHWEST IOWA

CITY           SKY/WX    TMP DP  RH WIND       PRES   REMARKS
CHEROKEE       SUNNY     34  31  90 SE7       30.29S WCI  28
DENISON        SUNNY     36  32  87 SE6       30.28S
ESTHERVILLE    SUNNY     31  30  96 SE9       30.31R FOG     WCI  23
SHELDON        MOSUNNY   34  30  86 SE13G18   30.26S WCI  25
SIOUX CITY     MOSUNNY   33  29  85 SE7       30.26S WCI  27
SPENCER        SUNNY     33  29  85 SE10      30.30S FOG     WCI  25
STORM LAKE     SUNNY     32  32 100 SE12      30.30S FOG     WCI  23
$$

ABBREVIATIONS USED IN REMARKS
   TC - TEMPERATURE IN CELSIUS
  WCI - WIND CHILL INDEX
   HX - HEAT INDEX
  VSB - VISIBILITY




USA.gov is the U.S. government's official web portal to all federal, state and local government web resources and services.